User: anonymous   Login
Location: Livonia
(42.3680°N, 83.3530°W)
Time: 06:25:09
(UTC-04:00)
Language:

MOZ.5/SAFIR/RUBIN 5/SL-8 - Orbit

View from above orbital plane
View from above orbital plane
View from above satellite
View from above satellite

Ground track
Ground track

The orbit data is extracted from the following two-line orbital elements,

1 28898U 05043G   16270.49754525  .00000108  00000-0  31536-4 0  9995
2 28898  97.8923  66.2977 0018590 298.8663  61.0672 14.60128803581354
Epoch (UTC): 26 September 2016 11:56:27
Eccentricity: 0.0018590
inclination: 97.8923°
perigee height: 679 km
apogee height: 706 km
right ascension of ascending node: 66.2977°
argument of perigee: 298.8663°
revolutions per day: 14.60128803
mean anomaly at epoch: 61.0672°
orbit number at epoch: 58135

The dashed part of the orbit path shows where the satellite is in the earth's shadow,  

DLR